Regional Weather Roundup
Issued by NWS

Home | Current Version | Previous Version | Graphics & Text | Print | Product List | Glossary On
Versions: 1 2 3 4 5 6 7 8 9 10 11 12 13 14 15 16 17 18 19 20 21 22 23 24 25 26 27 28 29 30 31 32 33 34 35 36 37 38 39 40 41 42 43 44 45 46 47 48 49 50
000
ASUS43 KIND 180109
RWRIN

WEATHER ROUNDUP FOR INDIANA
NATIONAL WEATHER SERVICE INDIANAPOLIS IN
900 PM EDT WED SEP 17 2014

NOTE: "FAIR" INDICATES FEW OR NO CLOUDS BELOW 12,000 FEET WITH NO
SIGNIFICANT WEATHER AND/OR OBSTRUCTIONS TO VISIBILITY.

* - STATION DOES NOT REPORT WEATHER SUCH AS PRECIPITATION OR FOG.

+ - STATION NOT QUALITY CONTROLLED BY THE NATIONAL WEATHER SERVICE.
    USE DATA WITH CAUTION...ESPECIALLY DEWPOINT AND RELATIVE
    HUMIDITY OBSERVATIONS.

INZ001>003-010>013-019-020-180200-
NORTHWEST INDIANA

CITY           SKY/WX    TMP DP  RH WIND       PRES   REMARKS
GARY /AIRPORT/ CLEAR     61  50  67 E3        30.00R
KNOX *+        CLEAR     56  47  72 NE6       29.99R
LA PORTE +     PTCLDY    51  49  95 CALM      30.01R
MICHIGAN CITY+ CLEAR     50  50 100 CALM      30.01R
MONTICELLO +   CLEAR     55  53  91 CALM      29.97R
RENSSELAER +   CLEAR     61  50  67 N5        29.99R
VALPARAISO     CLEAR     56  48  74 NE3       30.00R

$$

LMZ046-743>745-180200-
SOUTHERN LAKE MICHIGAN

STATION/POSITION TIME  TEMP WIND        PRES
                       AIR  DIR/SP/G
                 (UTC) (F)  (DEG/KT/KT) (MB)
MICHIGAN CITY    0100   60   70/  7/  9   N/A

$$

INZ004-005-014>016-021>024-180200-
NORTH CENTRAL INDIANA

CITY           SKY/WX    TMP DP  RH WIND       PRES   REMARKS
ELKHART        PTCLDY    54  45  71 CALM      30.01R
GOSHEN         CLEAR     56  45  66 N5        30.00R
LOGANSPORT +   CLEAR     54  48  82 N3        29.99R
PERU/GRISSOM   CLEAR     57  56  95 CALM      29.98R
ROCHESTER +    CLEAR     61  50  67 CALM      30.00R
SOUTH BEND     CLEAR     53  45  74 CALM      30.01S
WARSAW +       CLEAR     55  46  71 N3        30.00R

$$

INZ006>009-017-018-025>027-180200-
NORTHEAST INDIANA

CITY           SKY/WX    TMP DP  RH WIND       PRES   REMARKS
ANGOLA *+      CLEAR     54  50  87 CALM      30.00R
AUBURN +       CLEAR     54  48  82 CALM      30.00S
FORT WAYNE     PTCLDY    56  51  84 CALM      29.99S
HUNTINGTON +   CLEAR     53  51  92 CALM      29.98S

$$

INZ028-029-035-036-043>045-051>053-180200-
WEST CENTRAL INDIANA

CITY           SKY/WX    TMP DP  RH WIND       PRES   REMARKS
GREENCASTLE +  PTCLDY    54  52  94 CALM      29.99R
LAFAYETTE      MOCLDY    55  52  89 NW3       29.98R
TERRE HAUTE    CLEAR     56  52  86 CALM      29.99R

$$

INZ030>032-037>040-046>048-054>057-064-065-180200-
CENTRAL INDIANA

CITY           SKY/WX    TMP DP  RH WIND       PRES   REMARKS
CP ATTERBURY + CLEAR     54  52  94 CALM      29.98S FOG
COLUMBUS       PTCLDY    57  52  82 MISG      29.99R
FRANKFORT +    PTCLDY    55  52  88 CALM      29.99R
INDIANAPOLIS   PTCLDY    60  49  66 CALM      29.97R
-EAGLE CREEK   PTCLDY    58  51  78 CALM      29.97R
KOKOMO *+      CLEAR     55  48  76 E3        29.98R
MARION +       CLEAR     55  49  81 CALM      29.99R
MT COMFORT *+  CLEAR     52  52 100 CALM      29.99R
SHELBYVILLE    CLEAR     57  51  80 E3        29.98R
ZIONSVILLE +   CLEAR     54  50  86 CALM      29.99R

$$

INZ033-034-041-042-049-050-058-059-180200-
EAST CENTRAL INDIANA

CITY           SKY/WX    TMP DP  RH WIND       PRES   REMARKS
MUNCIE         CLEAR     55  49  80 CALM      29.98S

$$

INZ060-061-067>069-081>083-085>088-180200-
SOUTHWEST INDIANA

CITY           SKY/WX    TMP DP  RH WIND       PRES   REMARKS
EVANSVILLE     PTCLDY    63  54  72 CALM      29.97S
WASHINGTON +   PTCLDY    59  55  87 CALM      29.97R

$$

INZ062-063-066-070>080-084-089>092-180200-
SOUTH CENTRAL AND SOUTHEAST INDIANA

CITY           SKY/WX    TMP DP  RH WIND       PRES   REMARKS
BLOOMINGTON    PTCLDY    56  53  90 CALM      29.99R
NORTH VERNON + CLEAR     55  55 100 CALM      29.99

$$



USA.gov is the U.S. government's official web portal to all federal, state and local government web resources and services.